Year,Month,Day,Hour,Minute,Value (Times are PST for temperature in C)
2006,04,28,00,00,9.70
2006,04,28,00,01,9.70
2006,04,28,00,02,9.70
2006,04,28,00,03,9.70
2006,04,28,00,04,9.70
2006,04,28,00,05,9.70
2006,04,28,00,06,9.70
2006,04,28,00,07,9.70
2006,04,28,00,08,9.70
2006,04,28,00,09,9.60
2006,04,28,00,10,9.60
2006,04,28,00,11,9.60
2006,04,28,00,12,9.60
2006,04,28,00,13,9.50
2006,04,28,00,14,9.50
2006,04,28,00,15,9.50
2006,04,28,00,16,9.50
2006,04,28,00,17,9.40
2006,04,28,00,18,9.40
2006,04,28,00,19,9.40
2006,04,28,00,20,9.40
2006,04,28,00,21,9.40
2006,04,28,00,22,9.40
2006,04,28,00,23,9.40
2006,04,28,00,24,9.40
2006,04,28,00,25,9.40
2006,04,28,00,26,9.40
2006,04,28,00,27,9.30
2006,04,28,00,28,9.30
2006,04,28,00,29,9.30
2006,04,28,00,30,9.30
2006,04,28,00,31,9.30
2006,04,28,00,32,9.30
2006,04,28,00,33,9.20
2006,04,28,00,34,9.20
2006,04,28,00,35,9.20
2006,04,28,00,36,9.20
2006,04,28,00,37,9.20
2006,04,28,00,38,9.20
2006,04,28,00,39,9.20
2006,04,28,00,40,9.20
2006,04,28,00,41,9.20
2006,04,28,00,42,9.30
2006,04,28,00,43,9.30
2006,04,28,00,44,9.30
2006,04,28,00,45,9.30
2006,04,28,00,46,9.30
2006,04,28,00,47,9.30
2006,04,28,00,48,9.30
2006,04,28,00,49,9.30
2006,04,28,00,50,9.20
2006,04,28,00,51,9.20
2006,04,28,00,52,9.20
2006,04,28,00,53,9.20
2006,04,28,00,54,9.20
2006,04,28,00,55,9.20
2006,04,28,00,56,9.30
2006,04,28,00,57,9.30
2006,04,28,00,58,9.30
2006,04,28,00,59,9.30
2006,04,28,01,00,9.30
2006,04,28,01,01,9.30
2006,04,28,01,02,9.30
2006,04,28,01,03,9.30
2006,04,28,01,04,9.30
2006,04,28,01,05,9.30
2006,04,28,01,06,9.30
2006,04,28,01,07,9.30
2006,04,28,01,08,9.30
2006,04,28,01,09,9.30
2006,04,28,01,10,9.30
2006,04,28,01,11,9.30
2006,04,28,01,12,9.30
2006,04,28,01,13,9.30
2006,04,28,01,14,9.20
2006,04,28,01,15,9.20
2006,04,28,01,16,9.20
2006,04,28,01,17,9.20
2006,04,28,01,18,9.20
2006,04,28,01,19,9.20
2006,04,28,01,20,9.20
2006,04,28,01,21,9.20
2006,04,28,01,22,9.20
2006,04,28,01,23,9.20
2006,04,28,01,24,9.20
2006,04,28,01,25,9.20
2006,04,28,01,26,9.20
2006,04,28,01,27,9.20
2006,04,28,01,28,9.20
2006,04,28,01,29,9.20
2006,04,28,01,30,9.20
2006,04,28,01,31,9.20
2006,04,28,01,32,9.20
2006,04,28,01,33,9.20
2006,04,28,01,34,9.20
2006,04,28,01,35,9.20
2006,04,28,01,36,9.20
2006,04,28,01,37,9.20
2006,04,28,01,38,9.20
2006,04,28,01,39,9.20
2006,04,28,01,40,9.20
2006,04,28,01,41,9.20
2006,04,28,01,42,9.10
2006,04,28,01,43,9.10
2006,04,28,01,44,9.10
2006,04,28,01,45,9.10
2006,04,28,01,46,9.10
2006,04,28,01,47,9.10
2006,04,28,01,48,9.00
2006,04,28,01,49,9.00
2006,04,28,01,50,9.00
2006,04,28,01,51,9.00
2006,04,28,01,52,9.00
2006,04,28,01,53,9.00
2006,04,28,01,54,9.00
2006,04,28,01,55,9.00
2006,04,28,01,56,9.00
2006,04,28,01,57,9.00
2006,04,28,01,58,9.00
2006,04,28,01,59,9.00
2006,04,28,02,00,9.00
2006,04,28,02,01,9.00
2006,04,28,02,02,9.00
2006,04,28,02,03,9.00
2006,04,28,02,04,9.00
2006,04,28,02,05,9.00
2006,04,28,02,06,9.10
2006,04,28,02,07,9.10
2006,04,28,02,08,9.10
2006,04,28,02,09,9.10
2006,04,28,02,10,9.10
2006,04,28,02,11,9.10
2006,04,28,02,12,9.10
2006,04,28,02,13,9.10
2006,04,28,02,14,9.10
2006,04,28,02,15,9.10
2006,04,28,02,16,9.10
2006,04,28,02,17,9.10
2006,04,28,02,18,9.10
2006,04,28,02,19,9.00
2006,04,28,02,20,9.00
2006,04,28,02,21,9.00
2006,04,28,02,22,9.00
2006,04,28,02,23,8.90
2006,04,28,02,24,8.90
2006,04,28,02,25,8.90
2006,04,28,02,26,8.90
2006,04,28,02,27,8.90
2006,04,28,02,28,8.90
2006,04,28,02,29,8.90
2006,04,28,02,30,8.90
2006,04,28,02,31,8.90
2006,04,28,02,32,8.90
2006,04,28,02,33,8.90
2006,04,28,02,34,8.90
2006,04,28,02,35,8.90
2006,04,28,02,36,8.90
2006,04,28,02,37,8.90
2006,04,28,02,38,8.90
2006,04,28,02,39,8.90
2006,04,28,02,40,8.90
2006,04,28,02,41,8.90
2006,04,28,02,42,8.90
2006,04,28,02,43,8.90
2006,04,28,02,44,8.90
2006,04,28,02,45,8.90
2006,04,28,02,46,8.90
2006,04,28,02,47,8.90
2006,04,28,02,48,8.90
2006,04,28,02,49,8.90
2006,04,28,02,50,8.90
2006,04,28,02,51,8.90
2006,04,28,02,52,8.90
2006,04,28,02,53,8.90
2006,04,28,02,54,8.90
2006,04,28,02,55,8.90
2006,04,28,02,56,8.90
2006,04,28,02,57,8.90
2006,04,28,02,58,8.90
2006,04,28,02,59,8.90
2006,04,28,03,00,8.90
2006,04,28,03,01,8.90
2006,04,28,03,02,8.80
2006,04,28,03,03,8.80
2006,04,28,03,04,8.80
2006,04,28,03,05,8.80
2006,04,28,03,06,8.80
2006,04,28,03,07,8.70
2006,04,28,03,08,8.70
2006,04,28,03,09,8.70
2006,04,28,03,10,8.80
2006,04,28,03,11,8.80
2006,04,28,03,12,8.80
2006,04,28,03,13,8.90
2006,04,28,03,14,8.90
2006,04,28,03,15,8.90
2006,04,28,03,16,8.90
2006,04,28,03,17,8.90
2006,04,28,03,18,9.00
2006,04,28,03,19,9.10
2006,04,28,03,20,9.10
2006,04,28,03,21,9.20
2006,04,28,03,22,9.20
2006,04,28,03,23,9.20
2006,04,28,03,24,9.20
2006,04,28,03,25,9.20
2006,04,28,03,26,9.20
2006,04,28,03,27,9.30
2006,04,28,03,28,9.30
2006,04,28,03,29,9.30
2006,04,28,03,30,9.20
2006,04,28,03,31,9.20
2006,04,28,03,32,9.20
2006,04,28,03,33,9.20
2006,04,28,03,34,9.20
2006,04,28,03,35,9.20
2006,04,28,03,36,9.20
2006,04,28,03,37,9.20
2006,04,28,03,38,9.30
2006,04,28,03,39,9.30
2006,04,28,03,40,9.40
2006,04,28,03,41,9.40
2006,04,28,03,42,9.40
2006,04,28,03,43,9.40
2006,04,28,03,44,9.50
2006,04,28,03,45,9.50
2006,04,28,03,46,9.50
2006,04,28,03,47,9.50
2006,04,28,03,48,9.50
2006,04,28,03,49,9.50
2006,04,28,03,50,9.50
2006,04,28,03,51,9.50
2006,04,28,03,52,9.50
2006,04,28,03,53,9.50
2006,04,28,03,54,9.50
2006,04,28,03,55,9.50
2006,04,28,03,56,9.40
2006,04,28,03,57,9.40
2006,04,28,03,58,9.40
2006,04,28,03,59,9.40
2006,04,28,04,00,9.30
2006,04,28,04,01,9.30
2006,04,28,04,02,9.30
2006,04,28,04,03,9.30
2006,04,28,04,04,9.30
2006,04,28,04,05,9.30
2006,04,28,04,06,9.30
2006,04,28,04,07,9.30
2006,04,28,04,08,9.30
2006,04,28,04,09,9.30
2006,04,28,04,10,9.20
2006,04,28,04,11,9.20
2006,04,28,04,12,9.20
2006,04,28,04,13,9.20
2006,04,28,04,14,9.20
2006,04,28,04,15,9.20
2006,04,28,04,16,9.20
2006,04,28,04,17,9.20
2006,04,28,04,18,9.20
2006,04,28,04,19,9.20
2006,04,28,04,20,9.20
2006,04,28,04,21,9.20
2006,04,28,04,22,9.20
2006,04,28,04,23,9.20
2006,04,28,04,24,9.20
2006,04,28,04,25,9.20
2006,04,28,04,26,9.20
2006,04,28,04,27,9.20
2006,04,28,04,28,9.20
2006,04,28,04,29,9.20
2006,04,28,04,30,9.20
2006,04,28,04,31,9.30
2006,04,28,04,32,9.30
2006,04,28,04,33,9.30
2006,04,28,04,34,9.30
2006,04,28,04,35,9.30
2006,04,28,04,36,9.30
2006,04,28,04,37,9.30
2006,04,28,04,38,9.30
2006,04,28,04,39,9.30
2006,04,28,04,40,9.30
2006,04,28,04,41,9.30
2006,04,28,04,42,9.30
2006,04,28,04,43,9.30
2006,04,28,04,44,9.30
2006,04,28,04,45,9.30
2006,04,28,04,46,9.30
2006,04,28,04,47,9.30
2006,04,28,04,48,9.30
2006,04,28,04,49,9.20
2006,04,28,04,50,9.20
2006,04,28,04,51,9.20
2006,04,28,04,52,9.20
2006,04,28,04,53,9.20
2006,04,28,04,54,9.20
2006,04,28,04,55,9.20
2006,04,28,04,56,9.20
2006,04,28,04,57,9.20
2006,04,28,04,58,9.20
2006,04,28,04,59,9.20
2006,04,28,05,00,9.20
2006,04,28,05,01,9.20
2006,04,28,05,02,9.20
2006,04,28,05,03,9.20
2006,04,28,05,04,9.20
2006,04,28,05,05,9.20
2006,04,28,05,06,9.20
2006,04,28,05,07,9.20
2006,04,28,05,08,9.20
2006,04,28,05,09,9.20
2006,04,28,05,10,9.20
2006,04,28,05,11,9.20
2006,04,28,05,12,9.20
2006,04,28,05,13,9.20
2006,04,28,05,14,9.20
2006,04,28,05,15,9.20
2006,04,28,05,16,9.20
2006,04,28,05,17,9.20
2006,04,28,05,18,9.20
2006,04,28,05,19,9.20
2006,04,28,05,20,9.20
2006,04,28,05,21,9.20
2006,04,28,05,22,9.20
2006,04,28,05,23,9.20
2006,04,28,05,24,9.10
2006,04,28,05,25,9.10
2006,04,28,05,26,9.10
2006,04,28,05,27,9.10
2006,04,28,05,28,9.00
2006,04,28,05,29,9.00
2006,04,28,05,30,9.00
2006,04,28,05,31,9.00
2006,04,28,05,32,9.00
2006,04,28,05,33,9.00
2006,04,28,05,34,9.00
2006,04,28,05,35,9.00
2006,04,28,05,36,9.00
2006,04,28,05,37,8.90
2006,04,28,05,38,8.90
2006,04,28,05,39,8.90
2006,04,28,05,40,8.90
2006,04,28,05,41,8.80
2006,04,28,05,42,8.80
2006,04,28,05,43,8.80
2006,04,28,05,44,8.80
2006,04,28,05,45,8.80
2006,04,28,05,46,8.80
2006,04,28,05,47,8.80
2006,04,28,05,48,8.80
2006,04,28,05,49,8.70
2006,04,28,05,50,8.70
2006,04,28,05,51,8.70
2006,04,28,05,52,8.70
2006,04,28,05,53,8.70
2006,04,28,05,54,8.70
2006,04,28,05,55,8.70
2006,04,28,05,56,8.70
2006,04,28,05,57,8.70
2006,04,28,05,58,8.70
2006,04,28,05,59,8.70
2006,04,28,06,00,8.70
2006,04,28,06,01,8.70
2006,04,28,06,02,8.70
2006,04,28,06,03,8.70
2006,04,28,06,04,8.70
2006,04,28,06,05,8.70
2006,04,28,06,06,8.70
2006,04,28,06,07,8.70
2006,04,28,06,08,8.70
2006,04,28,06,09,8.70
2006,04,28,06,10,8.70
2006,04,28,06,11,8.70
2006,04,28,06,12,8.70
2006,04,28,06,13,8.70
2006,04,28,06,14,8.70
2006,04,28,06,15,8.70
2006,04,28,06,16,8.70
2006,04,28,06,17,8.70
2006,04,28,06,18,8.70
2006,04,28,06,19,8.70
2006,04,28,06,20,8.70
2006,04,28,06,21,8.70
2006,04,28,06,22,8.70
2006,04,28,06,23,8.70
2006,04,28,06,24,8.80
2006,04,28,06,25,8.80
2006,04,28,06,26,8.80
2006,04,28,06,27,8.80
2006,04,28,06,28,8.80
2006,04,28,06,29,8.80
2006,04,28,06,30,8.80
2006,04,28,06,31,8.80
2006,04,28,06,32,8.90
2006,04,28,06,33,8.90
2006,04,28,06,34,8.90
2006,04,28,06,35,8.90
2006,04,28,06,36,8.90
2006,04,28,06,37,8.90
2006,04,28,06,38,8.90
2006,04,28,06,39,9.00
2006,04,28,06,40,9.00
2006,04,28,06,41,9.00
2006,04,28,06,42,9.00
2006,04,28,06,43,9.00
2006,04,28,06,44,9.00
2006,04,28,06,45,9.10
2006,04,28,06,46,9.10
2006,04,28,06,47,9.10
2006,04,28,06,48,9.20
2006,04,28,06,49,9.20
2006,04,28,06,50,9.20
2006,04,28,06,51,9.20
2006,04,28,06,52,9.20
2006,04,28,06,53,9.20
2006,04,28,06,54,9.20
2006,04,28,06,55,9.20
2006,04,28,06,56,9.20
2006,04,28,06,57,9.20
2006,04,28,06,58,9.20
2006,04,28,06,59,9.20
2006,04,28,07,00,9.20
2006,04,28,07,01,9.30
2006,04,28,07,02,9.30
2006,04,28,07,03,9.30
2006,04,28,07,04,9.30
2006,04,28,07,05,9.30
2006,04,28,07,06,9.40
2006,04,28,07,07,9.40
2006,04,28,07,08,9.40
2006,04,28,07,09,9.40
2006,04,28,07,10,9.40
2006,04,28,07,11,9.40
2006,04,28,07,12,9.40
2006,04,28,07,13,9.40
2006,04,28,07,14,9.40
2006,04,28,07,15,9.40
2006,04,28,07,16,9.40
2006,04,28,07,17,9.40
2006,04,28,07,18,9.50
2006,04,28,07,19,9.50
2006,04,28,07,20,9.50
2006,04,28,07,21,9.50
2006,04,28,07,22,9.50
2006,04,28,07,23,9.50
2006,04,28,07,24,9.50
2006,04,28,07,25,9.50
2006,04,28,07,26,9.50
2006,04,28,07,27,9.50
2006,04,28,07,28,9.60
2006,04,28,07,29,9.60
2006,04,28,07,30,9.60
2006,04,28,07,31,9.60
2006,04,28,07,32,9.60
2006,04,28,07,33,9.60
2006,04,28,07,34,9.60
2006,04,28,07,35,9.60
2006,04,28,07,36,9.60
2006,04,28,07,37,9.70
2006,04,28,07,38,9.70
2006,04,28,07,39,9.70
2006,04,28,07,40,9.70
2006,04,28,07,41,9.70
2006,04,28,07,42,9.70
2006,04,28,07,43,9.70
2006,04,28,07,44,9.70
2006,04,28,07,45,9.80
2006,04,28,07,46,9.80
2006,04,28,07,47,9.80
2006,04,28,07,48,9.90
2006,04,28,07,49,9.90
2006,04,28,07,50,9.90
2006,04,28,07,51,9.90
2006,04,28,07,52,9.90
2006,04,28,07,53,9.90
2006,04,28,07,54,10.10
2006,04,28,07,55,10.10
2006,04,28,07,56,10.10
2006,04,28,07,57,10.20
2006,04,28,07,58,10.30
2006,04,28,07,59,10.30
2006,04,28,08,00,10.30
2006,04,28,08,01,10.30
2006,04,28,08,02,10.30
2006,04,28,08,03,10.40
2006,04,28,08,04,10.40
2006,04,28,08,05,10.40
2006,04,28,08,06,10.40
2006,04,28,08,07,10.40
2006,04,28,08,08,10.40
2006,04,28,08,09,10.40
2006,04,28,08,10,10.40
2006,04,28,08,11,10.40
2006,04,28,08,12,10.40
2006,04,28,08,13,10.40
2006,04,28,08,14,10.40
2006,04,28,08,15,10.50
2006,04,28,08,16,10.60
2006,04,28,08,17,10.60
2006,04,28,08,18,10.60
2006,04,28,08,19,10.60
2006,04,28,08,20,10.60
2006,04,28,08,21,10.70
2006,04,28,08,22,10.70
2006,04,28,08,23,10.70
2006,04,28,08,24,10.80
2006,04,28,08,25,10.80
2006,04,28,08,26,10.80
2006,04,28,08,27,10.90
2006,04,28,08,28,10.90
2006,04,28,08,29,10.90
2006,04,28,08,30,10.90
2006,04,28,08,31,10.80
2006,04,28,08,32,10.70
2006,04,28,08,33,10.70
2006,04,28,08,34,10.70
2006,04,28,08,35,10.70
2006,04,28,08,36,10.60
2006,04,28,08,37,10.60
2006,04,28,08,38,10.60
2006,04,28,08,39,10.60
2006,04,28,08,40,10.60
2006,04,28,08,41,10.60
2006,04,28,08,42,10.60
2006,04,28,08,43,10.40
2006,04,28,08,44,10.50
2006,04,28,08,45,10.60
2006,04,28,08,46,10.60
2006,04,28,08,47,10.60
2006,04,28,08,48,10.60
2006,04,28,08,49,10.70
2006,04,28,08,50,10.70
2006,04,28,08,51,10.80
2006,04,28,08,52,10.90
2006,04,28,08,53,10.90
2006,04,28,08,54,10.90
2006,04,28,08,55,11.00
2006,04,28,08,56,11.10
2006,04,28,08,57,11.10
2006,04,28,08,58,11.10
2006,04,28,08,59,11.20
2006,04,28,09,00,11.20
2006,04,28,09,01,11.30
2006,04,28,09,02,11.40
2006,04,28,09,03,11.50
2006,04,28,09,04,11.60
2006,04,28,09,05,11.60
2006,04,28,09,06,11.70
2006,04,28,09,07,11.70
2006,04,28,09,08,11.80
2006,04,28,09,09,11.80
2006,04,28,09,10,11.80
2006,04,28,09,11,11.80
2006,04,28,09,12,11.80
2006,04,28,09,13,11.80
2006,04,28,09,14,11.80
2006,04,28,09,15,11.80
2006,04,28,09,16,11.80
2006,04,28,09,17,11.80
2006,04,28,09,18,11.80
2006,04,28,09,19,11.90
2006,04,28,09,20,11.80
2006,04,28,09,21,11.80
2006,04,28,09,22,11.80
2006,04,28,09,23,11.80
2006,04,28,09,24,11.80
2006,04,28,09,25,11.80
2006,04,28,09,26,11.80
2006,04,28,09,27,11.80
2006,04,28,09,28,11.80
2006,04,28,09,29,11.80
2006,04,28,09,30,11.80
2006,04,28,09,31,11.80
2006,04,28,09,32,11.70
2006,04,28,09,33,11.70
2006,04,28,09,34,11.70
2006,04,28,09,35,11.70
2006,04,28,09,36,11.80
2006,04,28,09,37,11.80
2006,04,28,09,38,11.90
2006,04,28,09,39,12.00
2006,04,28,09,40,12.00
2006,04,28,09,41,12.10
2006,04,28,09,42,12.30
2006,04,28,09,43,12.30
2006,04,28,09,44,12.30
2006,04,28,09,45,12.30
2006,04,28,09,46,12.30
2006,04,28,09,47,12.30
2006,04,28,09,48,12.30
2006,04,28,09,49,12.30
2006,04,28,09,50,12.30
2006,04,28,09,51,12.30
2006,04,28,09,52,12.30
2006,04,28,09,53,12.30
2006,04,28,09,54,12.30
2006,04,28,09,55,12.40
2006,04,28,09,56,12.40
2006,04,28,09,57,12.40
2006,04,28,09,58,12.50
2006,04,28,09,59,12.50
2006,04,28,10,00,12.50
2006,04,28,10,01,12.50
2006,04,28,10,02,12.50
2006,04,28,10,03,12.50
2006,04,28,10,04,12.50
2006,04,28,10,05,12.40
2006,04,28,10,06,12.50
2006,04,28,10,07,12.50
2006,04,28,10,08,12.60
2006,04,28,10,09,12.60
2006,04,28,10,10,12.70
2006,04,28,10,11,12.80
2006,04,28,10,12,12.90
2006,04,28,10,13,13.00
2006,04,28,10,14,13.10
2006,04,28,10,15,13.00
2006,04,28,10,16,13.00
2006,04,28,10,17,13.10
2006,04,28,10,18,13.10
2006,04,28,10,19,13.10
2006,04,28,10,20,13.10
2006,04,28,10,21,13.20
2006,04,28,10,22,13.30
2006,04,28,10,23,13.30
2006,04,28,10,24,13.30
2006,04,28,10,25,13.40
2006,04,28,10,26,13.40
2006,04,28,10,27,13.30
2006,04,28,10,28,13.30
2006,04,28,10,29,13.10
2006,04,28,10,30,13.10
2006,04,28,10,31,13.10
2006,04,28,10,32,13.00
2006,04,28,10,33,12.90
2006,04,28,10,34,12.90
2006,04,28,10,35,12.90
2006,04,28,10,36,13.00
2006,04,28,10,37,13.00
2006,04,28,10,38,13.10
2006,04,28,10,39,13.20
2006,04,28,10,40,13.30
2006,04,28,10,41,13.40
2006,04,28,10,42,13.40
2006,04,28,10,43,13.40
2006,04,28,10,44,13.40
2006,04,28,10,45,13.40
2006,04,28,10,46,13.50
2006,04,28,10,47,13.50
2006,04,28,10,48,13.50
2006,04,28,10,49,13.40
2006,04,28,10,50,13.40
2006,04,28,10,51,13.50
2006,04,28,10,52,13.50
2006,04,28,10,53,13.50
2006,04,28,10,54,13.50
2006,04,28,10,55,13.60
2006,04,28,10,56,13.70
2006,04,28,10,57,13.70
2006,04,28,10,58,13.80
2006,04,28,10,59,13.90
2006,04,28,11,00,13.90
2006,04,28,11,01,14.00
2006,04,28,11,02,14.00
2006,04,28,11,03,14.00
2006,04,28,11,04,13.90
2006,04,28,11,05,13.90
2006,04,28,11,06,13.90
2006,04,28,11,07,14.00
2006,04,28,11,08,14.10
2006,04,28,11,09,14.20
2006,04,28,11,10,14.40
2006,04,28,11,11,14.50
2006,04,28,11,12,14.50
2006,04,28,11,13,14.50
2006,04,28,11,14,14.50
2006,04,28,11,15,14.50
2006,04,28,11,16,14.50
2006,04,28,11,17,14.40
2006,04,28,11,18,14.40
2006,04,28,11,19,14.40
2006,04,28,11,20,14.40
2006,04,28,11,21,14.40
2006,04,28,11,22,14.50
2006,04,28,11,23,14.60
2006,04,28,11,24,14.60
2006,04,28,11,25,14.70
2006,04,28,11,26,14.80
2006,04,28,11,27,14.90
2006,04,28,11,28,14.90
2006,04,28,11,29,15.10
2006,04,28,11,30,15.20
2006,04,28,11,31,15.30
2006,04,28,11,32,15.30
2006,04,28,11,33,15.30
2006,04,28,11,34,15.40
2006,04,28,11,35,15.40
2006,04,28,11,36,15.50
2006,04,28,11,37,15.50
2006,04,28,11,38,15.60
2006,04,28,11,39,15.50
2006,04,28,11,40,15.50
2006,04,28,11,41,15.50
2006,04,28,11,42,15.50
2006,04,28,11,43,15.50
2006,04,28,11,44,15.50
2006,04,28,11,45,15.40
2006,04,28,11,46,15.40
2006,04,28,11,47,15.40
2006,04,28,11,48,15.40
2006,04,28,11,49,15.50
2006,04,28,11,50,15.50
2006,04,28,11,51,15.50
2006,04,28,11,52,15.60
2006,04,28,11,53,15.70
2006,04,28,11,54,15.80
2006,04,28,11,55,15.80
2006,04,28,11,56,16.00
2006,04,28,11,57,16.20
2006,04,28,11,58,16.30
2006,04,28,11,59,16.40
2006,04,28,12,00,16.50
2006,04,28,12,01,16.60
2006,04,28,12,02,16.60
2006,04,28,12,03,16.60
2006,04,28,12,04,16.60
2006,04,28,12,05,16.50
2006,04,28,12,06,16.40
2006,04,28,12,07,16.40
2006,04,28,12,08,16.30
2006,04,28,12,09,16.30
2006,04,28,12,10,16.30
2006,04,28,12,11,16.30
2006,04,28,12,12,16.40
2006,04,28,12,13,16.40
2006,04,28,12,14,16.60
2006,04,28,12,15,16.70
2006,04,28,12,16,16.70
2006,04,28,12,17,16.90
2006,04,28,12,18,17.00
2006,04,28,12,19,17.00
2006,04,28,12,20,17.00
2006,04,28,12,21,16.80
2006,04,28,12,22,16.70
2006,04,28,12,23,16.60
2006,04,28,12,24,16.40
2006,04,28,12,25,16.20
2006,04,28,12,26,16.10
2006,04,28,12,27,16.00
2006,04,28,12,28,15.80
2006,04,28,12,29,15.80
2006,04,28,12,30,15.80
2006,04,28,12,31,15.70
2006,04,28,12,32,15.70
2006,04,28,12,33,15.60
2006,04,28,12,34,15.70
2006,04,28,12,35,15.70
2006,04,28,12,36,15.80
2006,04,28,12,37,15.90
2006,04,28,12,38,16.00
2006,04,28,12,39,16.10
2006,04,28,12,40,16.30
2006,04,28,12,41,16.30
2006,04,28,12,42,16.30
2006,04,28,12,43,16.30
2006,04,28,12,44,16.40
2006,04,28,12,45,16.40
2006,04,28,12,46,16.40
2006,04,28,12,47,16.50
2006,04,28,12,48,16.60
2006,04,28,12,49,16.60
2006,04,28,12,50,16.60
2006,04,28,12,51,16.50
2006,04,28,12,52,16.40
2006,04,28,12,53,16.40
2006,04,28,12,54,16.40
2006,04,28,12,55,16.50
2006,04,28,12,56,16.60
2006,04,28,12,57,16.60
2006,04,28,12,58,16.40
2006,04,28,12,59,16.40
2006,04,28,13,00,16.30
2006,04,28,13,01,16.30
2006,04,28,13,02,16.30
2006,04,28,13,03,16.40
2006,04,28,13,04,16.40
2006,04,28,13,05,16.40
2006,04,28,13,06,16.40
2006,04,28,13,07,16.40
2006,04,28,13,08,16.30
2006,04,28,13,09,16.30
2006,04,28,13,10,16.20
2006,04,28,13,11,16.20
2006,04,28,13,12,16.30
2006,04,28,13,13,16.30
2006,04,28,13,14,16.40
2006,04,28,13,15,16.40
2006,04,28,13,16,16.40
2006,04,28,13,17,16.50
2006,04,28,13,18,16.60
2006,04,28,13,19,16.70
2006,04,28,13,20,16.70
2006,04,28,13,21,16.80
2006,04,28,13,22,16.80
2006,04,28,13,23,16.80
2006,04,28,13,24,16.90
2006,04,28,13,25,16.90
2006,04,28,13,26,16.80
2006,04,28,13,27,16.80
2006,04,28,13,28,16.80
2006,04,28,13,29,16.80
2006,04,28,13,30,16.80
2006,04,28,13,31,16.90
2006,04,28,13,32,17.00
2006,04,28,13,33,17.00
2006,04,28,13,34,17.00
2006,04,28,13,35,17.00
2006,04,28,13,36,17.10
2006,04,28,13,37,17.10
2006,04,28,13,38,17.20
2006,04,28,13,39,17.30
2006,04,28,13,40,17.30
2006,04,28,13,41,17.20
2006,04,28,13,42,17.20
2006,04,28,13,43,17.20
2006,04,28,13,44,17.30
2006,04,28,13,45,17.30
2006,04,28,13,46,17.40
2006,04,28,13,47,17.40
2006,04,28,13,48,17.30
2006,04,28,13,49,17.30
2006,04,28,13,50,17.30
2006,04,28,13,51,17.30
2006,04,28,13,52,17.30
2006,04,28,13,53,17.30
2006,04,28,13,54,17.30
2006,04,28,13,55,17.30
2006,04,28,13,56,17.30
2006,04,28,13,57,17.30
2006,04,28,13,58,17.20
2006,04,28,13,59,17.10
2006,04,28,14,00,17.00
2006,04,28,14,01,16.90
2006,04,28,14,02,16.90
2006,04,28,14,03,16.90
2006,04,28,14,04,17.00
2006,04,28,14,05,16.90
2006,04,28,14,06,17.00
2006,04,28,14,07,17.00
2006,04,28,14,08,17.00
2006,04,28,14,09,17.00
2006,04,28,14,10,16.90
2006,04,28,14,11,16.90
2006,04,28,14,12,16.80
2006,04,28,14,13,16.70
2006,04,28,14,14,16.70
2006,04,28,14,15,16.70
2006,04,28,14,16,16.70
2006,04,28,14,17,16.70
2006,04,28,14,18,16.70
2006,04,28,14,19,16.70
2006,04,28,14,20,16.70
2006,04,28,14,21,16.70
2006,04,28,14,22,16.60
2006,04,28,14,23,16.60
2006,04,28,14,24,16.60
2006,04,28,14,25,16.70
2006,04,28,14,26,16.70
2006,04,28,14,27,16.70
2006,04,28,14,28,16.70
2006,04,28,14,29,16.70
2006,04,28,14,30,16.70
2006,04,28,14,31,16.70
2006,04,28,14,32,16.70
2006,04,28,14,33,16.80
2006,04,28,14,34,16.80
2006,04,28,14,35,16.90
2006,04,28,14,36,16.90
2006,04,28,14,37,17.00
2006,04,28,14,38,17.00
2006,04,28,14,39,16.90
2006,04,28,14,40,16.80
2006,04,28,14,41,16.70
2006,04,28,14,42,16.70
2006,04,28,14,43,16.70
2006,04,28,14,44,16.70
2006,04,28,14,45,16.70
2006,04,28,14,46,16.70
2006,04,28,14,47,16.70
2006,04,28,14,48,16.70
2006,04,28,14,49,16.70
2006,04,28,14,50,16.70
2006,04,28,14,51,16.70
2006,04,28,14,52,16.70
2006,04,28,14,53,16.60
2006,04,28,14,54,16.60
2006,04,28,14,55,16.60
2006,04,28,14,56,16.60
2006,04,28,14,57,16.70
2006,04,28,14,58,16.70
2006,04,28,14,59,16.70
2006,04,28,15,00,16.70
2006,04,28,15,01,16.60
2006,04,28,15,02,16.50
2006,04,28,15,03,16.40
2006,04,28,15,04,16.40
2006,04,28,15,05,16.40
2006,04,28,15,06,16.30
2006,04,28,15,07,16.30
2006,04,28,15,08,16.20
2006,04,28,15,09,16.20
2006,04,28,15,10,16.20
2006,04,28,15,11,16.20
2006,04,28,15,12,16.20
2006,04,28,15,13,16.30
2006,04,28,15,14,16.40
2006,04,28,15,15,16.40
2006,04,28,15,16,16.40
2006,04,28,15,17,16.40
2006,04,28,15,18,16.40
2006,04,28,15,19,16.40
2006,04,28,15,20,16.40
2006,04,28,15,21,16.40
2006,04,28,15,22,16.30
2006,04,28,15,23,16.20
2006,04,28,15,24,16.10
2006,04,28,15,25,16.10
2006,04,28,15,26,16.10
2006,04,28,15,27,16.10
2006,04,28,15,28,16.10
2006,04,28,15,29,16.10
2006,04,28,15,30,16.00
2006,04,28,15,31,16.10
2006,04,28,15,32,16.10
2006,04,28,15,33,16.10
2006,04,28,15,34,16.10
2006,04,28,15,35,16.10
2006,04,28,15,36,16.10
2006,04,28,15,37,16.10
2006,04,28,15,38,16.10
2006,04,28,15,39,16.10
2006,04,28,15,40,16.10
2006,04,28,15,41,16.00
2006,04,28,15,42,15.90
2006,04,28,15,43,15.90
2006,04,28,15,44,16.00
2006,04,28,15,45,16.10
2006,04,28,15,46,16.10
2006,04,28,15,47,16.10
2006,04,28,15,48,16.00
2006,04,28,15,49,15.90
2006,04,28,15,50,15.90
2006,04,28,15,51,15.90
2006,04,28,15,52,15.90
2006,04,28,15,53,16.00
2006,04,28,15,54,16.10
2006,04,28,15,55,16.20
2006,04,28,15,56,16.20
2006,04,28,15,57,16.30
2006,04,28,15,58,16.30
2006,04,28,15,59,16.20
2006,04,28,16,00,16.10
2006,04,28,16,01,16.10
2006,04,28,16,02,15.90
2006,04,28,16,03,15.80
2006,04,28,16,04,15.80
2006,04,28,16,05,15.80
2006,04,28,16,06,15.80
2006,04,28,16,07,15.80
2006,04,28,16,08,15.70
2006,04,28,16,09,15.70
2006,04,28,16,10,15.70
2006,04,28,16,11,15.70
2006,04,28,16,12,15.70
2006,04,28,16,13,15.60
2006,04,28,16,14,15.60
2006,04,28,16,15,15.60
2006,04,28,16,16,15.60
2006,04,28,16,17,15.60
2006,04,28,16,18,15.70
2006,04,28,16,19,15.70
2006,04,28,16,20,15.70
2006,04,28,16,21,15.60
2006,04,28,16,22,15.70
2006,04,28,16,23,15.60
2006,04,28,16,24,15.50
2006,04,28,16,25,15.40
2006,04,28,16,26,15.40
2006,04,28,16,27,15.30
2006,04,28,16,28,15.30
2006,04,28,16,29,15.30
2006,04,28,16,30,15.30
2006,04,28,16,31,15.30
2006,04,28,16,32,15.30
2006,04,28,16,33,15.30
2006,04,28,16,34,15.30
2006,04,28,16,35,15.20
2006,04,28,16,36,15.00
2006,04,28,16,37,14.90
2006,04,28,16,38,14.80
2006,04,28,16,39,14.70
2006,04,28,16,40,14.60
2006,04,28,16,41,14.50
2006,04,28,16,42,14.50
2006,04,28,16,43,14.60
2006,04,28,16,44,14.60
2006,04,28,16,45,14.60
2006,04,28,16,46,14.60
2006,04,28,16,47,14.70
2006,04,28,16,48,14.60
2006,04,28,16,49,14.70
2006,04,28,16,50,14.70
2006,04,28,16,51,14.80
2006,04,28,16,52,14.80
2006,04,28,16,53,14.80
2006,04,28,16,54,14.90
2006,04,28,16,55,14.90
2006,04,28,16,56,15.00
2006,04,28,16,57,15.10
2006,04,28,16,58,15.10
2006,04,28,16,59,15.20
2006,04,28,17,00,15.20
2006,04,28,17,01,15.20
2006,04,28,17,02,15.30
2006,04,28,17,03,15.30
2006,04,28,17,04,15.30
2006,04,28,17,05,15.40
2006,04,28,17,06,15.50
2006,04,28,17,07,15.60
2006,04,28,17,08,15.60
2006,04,28,17,09,15.50
2006,04,28,17,10,15.40
2006,04,28,17,11,15.30
2006,04,28,17,12,15.30
2006,04,28,17,13,15.30
2006,04,28,17,14,15.30
2006,04,28,17,15,15.20
2006,04,28,17,16,15.20
2006,04,28,17,17,15.10
2006,04,28,17,18,15.10
2006,04,28,17,19,15.10
2006,04,28,17,20,15.10
2006,04,28,17,21,15.10
2006,04,28,17,22,15.20
2006,04,28,17,23,15.20
2006,04,28,17,24,15.20
2006,04,28,17,25,15.20
2006,04,28,17,26,15.20
2006,04,28,17,27,15.20
2006,04,28,17,28,15.30
2006,04,28,17,29,15.30
2006,04,28,17,30,15.50
2006,04,28,17,31,15.60
2006,04,28,17,32,15.70
2006,04,28,17,33,15.70
2006,04,28,17,34,15.70
2006,04,28,17,35,15.80
2006,04,28,17,36,15.70
2006,04,28,17,37,15.70
2006,04,28,17,38,15.60
2006,04,28,17,39,15.50
2006,04,28,17,40,15.40